Year,Month,Day,Hour,Minute,Value (Times are PST for temperature in C)
2007,05,29,00,00,9.20
2007,05,29,00,01,9.20
2007,05,29,00,02,9.20
2007,05,29,00,03,9.20
2007,05,29,00,04,9.20
2007,05,29,00,05,9.30
2007,05,29,00,06,9.30
2007,05,29,00,07,9.30
2007,05,29,00,08,9.30
2007,05,29,00,09,9.30
2007,05,29,00,10,9.30
2007,05,29,00,11,9.30
2007,05,29,00,12,9.20
2007,05,29,00,13,9.20
2007,05,29,00,14,9.20
2007,05,29,00,15,9.20
2007,05,29,00,16,9.20
2007,05,29,00,17,9.20
2007,05,29,00,18,9.20
2007,05,29,00,19,9.20
2007,05,29,00,20,9.10
2007,05,29,00,21,9.10
2007,05,29,00,22,9.10
2007,05,29,00,23,9.10
2007,05,29,00,24,9.10
2007,05,29,00,25,9.10
2007,05,29,00,26,9.10
2007,05,29,00,27,9.10
2007,05,29,00,28,9.10
2007,05,29,00,29,9.10
2007,05,29,00,30,9.10
2007,05,29,00,31,9.20
2007,05,29,00,32,9.20
2007,05,29,00,33,9.20
2007,05,29,00,34,9.10
2007,05,29,00,35,9.10
2007,05,29,00,36,9.10
2007,05,29,00,37,9.10
2007,05,29,00,38,9.10
2007,05,29,00,39,9.10
2007,05,29,00,40,9.10
2007,05,29,00,41,9.10
2007,05,29,00,42,9.00
2007,05,29,00,43,9.00
2007,05,29,00,44,9.00
2007,05,29,00,45,9.00
2007,05,29,00,46,9.00
2007,05,29,00,47,9.00
2007,05,29,00,48,9.00
2007,05,29,00,49,9.00
2007,05,29,00,50,9.00
2007,05,29,00,51,9.00
2007,05,29,00,52,9.00
2007,05,29,00,53,9.00
2007,05,29,00,54,9.00
2007,05,29,00,55,9.00
2007,05,29,00,56,8.90
2007,05,29,00,57,8.90
2007,05,29,00,58,8.90
2007,05,29,00,59,8.90
2007,05,29,01,00,8.90
2007,05,29,01,01,8.90
2007,05,29,01,02,8.90
2007,05,29,01,03,8.90
2007,05,29,01,04,8.90
2007,05,29,01,05,8.80
2007,05,29,01,06,8.80
2007,05,29,01,07,8.80
2007,05,29,01,08,8.80
2007,05,29,01,09,8.80
2007,05,29,01,10,8.80
2007,05,29,01,11,8.80
2007,05,29,01,12,8.80
2007,05,29,01,13,8.80
2007,05,29,01,14,8.80
2007,05,29,01,15,8.80
2007,05,29,01,16,8.80
2007,05,29,01,17,8.80
2007,05,29,01,18,8.80
2007,05,29,01,19,8.80
2007,05,29,01,20,8.80
2007,05,29,01,21,8.80
2007,05,29,01,22,8.80
2007,05,29,01,23,8.80
2007,05,29,01,24,8.80
2007,05,29,01,25,8.80
2007,05,29,01,26,8.80
2007,05,29,01,27,8.80
2007,05,29,01,28,8.80
2007,05,29,01,29,8.80
2007,05,29,01,30,8.80
2007,05,29,01,31,8.80
2007,05,29,01,32,8.80
2007,05,29,01,33,8.80
2007,05,29,01,34,8.80
2007,05,29,01,35,8.80
2007,05,29,01,36,8.70
2007,05,29,01,37,8.70
2007,05,29,01,38,8.70
2007,05,29,01,39,8.70
2007,05,29,01,40,8.70
2007,05,29,01,41,8.70
2007,05,29,01,42,8.70
2007,05,29,01,43,8.70
2007,05,29,01,44,8.70
2007,05,29,01,45,8.70
2007,05,29,01,46,8.60
2007,05,29,01,47,8.60
2007,05,29,01,48,8.60
2007,05,29,01,49,8.60
2007,05,29,01,50,8.60
2007,05,29,01,51,8.60
2007,05,29,01,52,8.60
2007,05,29,01,53,8.60
2007,05,29,01,54,8.60
2007,05,29,01,55,8.60
2007,05,29,01,56,8.60
2007,05,29,01,57,8.70
2007,05,29,01,58,8.70
2007,05,29,01,59,8.70
2007,05,29,02,00,8.70
2007,05,29,02,01,8.70
2007,05,29,02,02,8.70
2007,05,29,02,03,8.70
2007,05,29,02,04,8.80
2007,05,29,02,05,8.80
2007,05,29,02,06,8.80
2007,05,29,02,07,8.80
2007,05,29,02,08,8.80
2007,05,29,02,09,8.80
2007,05,29,02,10,8.80
2007,05,29,02,11,8.80
2007,05,29,02,12,8.80
2007,05,29,02,13,8.80
2007,05,29,02,14,8.80
2007,05,29,02,15,8.80
2007,05,29,02,16,8.80
2007,05,29,02,17,8.80
2007,05,29,02,18,8.80
2007,05,29,02,19,8.80
2007,05,29,02,20,8.80
2007,05,29,02,21,8.80
2007,05,29,02,22,8.80
2007,05,29,02,23,8.80
2007,05,29,02,24,8.80
2007,05,29,02,25,8.80
2007,05,29,02,26,8.80
2007,05,29,02,27,8.80
2007,05,29,02,28,8.80
2007,05,29,02,29,8.80
2007,05,29,02,30,8.80
2007,05,29,02,31,8.80
2007,05,29,02,32,8.80
2007,05,29,02,33,8.80
2007,05,29,02,34,8.80
2007,05,29,02,35,8.80
2007,05,29,02,36,8.80
2007,05,29,02,37,8.80
2007,05,29,02,38,8.80
2007,05,29,02,39,8.80
2007,05,29,02,40,8.80
2007,05,29,02,41,8.80
2007,05,29,02,42,8.80
2007,05,29,02,43,8.80
2007,05,29,02,44,8.80
2007,05,29,02,45,8.80
2007,05,29,02,46,8.80
2007,05,29,02,47,8.80
2007,05,29,02,48,8.80
2007,05,29,02,49,8.80
2007,05,29,02,50,8.80
2007,05,29,02,51,8.80
2007,05,29,02,52,8.80
2007,05,29,02,53,8.80
2007,05,29,02,54,8.80
2007,05,29,02,55,8.80
2007,05,29,02,56,8.80
2007,05,29,02,57,8.80
2007,05,29,02,58,8.70
2007,05,29,02,59,8.70
2007,05,29,03,00,8.70
2007,05,29,03,01,8.70
2007,05,29,03,02,8.70
2007,05,29,03,03,8.70
2007,05,29,03,04,8.70
2007,05,29,03,05,8.70
2007,05,29,03,06,8.70
2007,05,29,03,07,8.70
2007,05,29,03,08,8.80
2007,05,29,03,09,8.80
2007,05,29,03,10,8.80
2007,05,29,03,11,8.80
2007,05,29,03,12,8.80
2007,05,29,03,13,8.90
2007,05,29,03,14,8.90
2007,05,29,03,15,8.90
2007,05,29,03,16,8.90
2007,05,29,03,17,8.90
2007,05,29,03,18,8.90
2007,05,29,03,19,8.90
2007,05,29,03,20,8.90
2007,05,29,03,21,8.90
2007,05,29,03,22,8.90
2007,05,29,03,23,8.90
2007,05,29,03,24,8.90
2007,05,29,03,25,8.90
2007,05,29,03,26,8.90
2007,05,29,03,27,8.90
2007,05,29,03,28,8.80
2007,05,29,03,29,8.80
2007,05,29,03,30,8.80
2007,05,29,03,31,8.80
2007,05,29,03,32,8.80
2007,05,29,03,33,8.80
2007,05,29,03,34,8.80
2007,05,29,03,35,8.80
2007,05,29,03,36,8.90
2007,05,29,03,37,8.90
2007,05,29,03,38,8.90
2007,05,29,03,39,8.90
2007,05,29,03,40,8.90
2007,05,29,03,41,8.90
2007,05,29,03,42,8.90
2007,05,29,03,43,8.90
2007,05,29,03,44,8.90
2007,05,29,03,45,9.00
2007,05,29,03,46,9.00
2007,05,29,03,47,9.00
2007,05,29,03,48,9.10
2007,05,29,03,49,9.10
2007,05,29,03,50,9.10
2007,05,29,03,51,9.10
2007,05,29,03,52,9.10
2007,05,29,03,53,9.20
2007,05,29,03,54,9.20
2007,05,29,03,55,9.20
2007,05,29,03,56,9.20
2007,05,29,03,57,9.10
2007,05,29,03,58,9.10
2007,05,29,03,59,9.10
2007,05,29,04,00,9.10
2007,05,29,04,01,9.00
2007,05,29,04,02,9.00
2007,05,29,04,03,9.00
2007,05,29,04,04,9.00
2007,05,29,04,05,9.00
2007,05,29,04,06,9.00
2007,05,29,04,07,9.10
2007,05,29,04,08,9.10
2007,05,29,04,09,9.10
2007,05,29,04,10,9.10
2007,05,29,04,11,9.10
2007,05,29,04,12,9.10
2007,05,29,04,13,9.10
2007,05,29,04,14,9.10
2007,05,29,04,15,9.10
2007,05,29,04,16,9.10
2007,05,29,04,17,9.10
2007,05,29,04,18,9.10
2007,05,29,04,19,9.10
2007,05,29,04,20,9.00
2007,05,29,04,21,9.00
2007,05,29,04,22,9.00
2007,05,29,04,23,9.00
2007,05,29,04,24,9.00
2007,05,29,04,25,9.00
2007,05,29,04,26,9.00
2007,05,29,04,27,9.10
2007,05,29,04,28,9.10
2007,05,29,04,29,9.10
2007,05,29,04,30,9.10
2007,05,29,04,31,9.10
2007,05,29,04,32,9.10
2007,05,29,04,33,9.10
2007,05,29,04,34,9.10
2007,05,29,04,35,9.10
2007,05,29,04,36,9.10
2007,05,29,04,37,9.10
2007,05,29,04,38,9.10
2007,05,29,04,39,9.00
2007,05,29,04,40,9.00
2007,05,29,04,41,9.00
2007,05,29,04,42,9.00
2007,05,29,04,43,8.90
2007,05,29,04,44,8.90
2007,05,29,04,45,8.90
2007,05,29,04,46,8.90
2007,05,29,04,47,8.90
2007,05,29,04,48,8.80
2007,05,29,04,49,8.80
2007,05,29,04,50,8.80
2007,05,29,04,51,8.80
2007,05,29,04,52,8.80
2007,05,29,04,53,8.80
2007,05,29,04,54,8.80
2007,05,29,04,55,8.80
2007,05,29,04,56,8.80
2007,05,29,04,57,8.90
2007,05,29,04,58,8.90
2007,05,29,04,59,8.90
2007,05,29,05,00,8.90
2007,05,29,05,01,8.90
2007,05,29,05,02,8.90
2007,05,29,05,03,8.90
2007,05,29,05,04,8.90
2007,05,29,05,05,8.90
2007,05,29,05,06,8.90
2007,05,29,05,07,8.90
2007,05,29,05,08,8.90
2007,05,29,05,09,8.90
2007,05,29,05,10,8.90
2007,05,29,05,11,8.90
2007,05,29,05,12,8.90
2007,05,29,05,13,8.90
2007,05,29,05,14,8.90
2007,05,29,05,15,8.90
2007,05,29,05,16,8.80
2007,05,29,05,17,8.80
2007,05,29,05,18,8.80
2007,05,29,05,19,8.80
2007,05,29,05,20,8.80
2007,05,29,05,21,8.80
2007,05,29,05,22,8.80
2007,05,29,05,23,8.80
2007,05,29,05,24,8.80
2007,05,29,05,25,8.80
2007,05,29,05,26,8.80
2007,05,29,05,27,8.80
2007,05,29,05,28,8.80
2007,05,29,05,29,8.80
2007,05,29,05,30,8.80
2007,05,29,05,31,8.80
2007,05,29,05,32,8.80
2007,05,29,05,33,8.80
2007,05,29,05,34,8.80
2007,05,29,05,35,8.80
2007,05,29,05,36,8.80
2007,05,29,05,37,8.80
2007,05,29,05,38,8.80
2007,05,29,05,39,8.80
2007,05,29,05,40,8.80
2007,05,29,05,41,8.80
2007,05,29,05,42,8.80
2007,05,29,05,43,8.90
2007,05,29,05,44,8.90
2007,05,29,05,45,8.90
2007,05,29,05,46,8.90
2007,05,29,05,47,8.90
2007,05,29,05,48,8.90
2007,05,29,05,49,8.90
2007,05,29,05,50,8.90
2007,05,29,05,51,9.00
2007,05,29,05,52,9.00
2007,05,29,05,53,9.00
2007,05,29,05,54,9.10
2007,05,29,05,55,9.10
2007,05,29,05,56,9.10
2007,05,29,05,57,9.10
2007,05,29,05,58,9.10
2007,05,29,05,59,9.20
2007,05,29,06,00,9.20
2007,05,29,06,01,9.20
2007,05,29,06,02,9.20
2007,05,29,06,03,9.30
2007,05,29,06,04,9.30
2007,05,29,06,05,9.30
2007,05,29,06,06,9.30
2007,05,29,06,07,9.40
2007,05,29,06,08,9.40
2007,05,29,06,09,9.40
2007,05,29,06,10,9.40
2007,05,29,06,11,9.40
2007,05,29,06,12,9.50
2007,05,29,06,13,9.50
2007,05,29,06,14,9.50
2007,05,29,06,15,9.50
2007,05,29,06,16,9.50
2007,05,29,06,17,9.50
2007,05,29,06,18,9.50
2007,05,29,06,19,9.60
2007,05,29,06,20,9.60
2007,05,29,06,21,9.60
2007,05,29,06,22,9.60
2007,05,29,06,23,9.60
2007,05,29,06,24,9.60
2007,05,29,06,25,9.60
2007,05,29,06,26,9.60
2007,05,29,06,27,9.60
2007,05,29,06,28,9.60
2007,05,29,06,29,9.60
2007,05,29,06,30,9.60
2007,05,29,06,31,9.60
2007,05,29,06,32,9.60
2007,05,29,06,33,9.60
2007,05,29,06,34,9.60
2007,05,29,06,35,9.70
2007,05,29,06,36,9.70
2007,05,29,06,37,9.70
2007,05,29,06,38,9.70
2007,05,29,06,39,9.70
2007,05,29,06,40,9.70
2007,05,29,06,41,9.70
2007,05,29,06,42,9.70
2007,05,29,06,43,9.70
2007,05,29,06,44,9.70
2007,05,29,06,45,9.70
2007,05,29,06,46,9.70
2007,05,29,06,47,9.70
2007,05,29,06,48,9.70
2007,05,29,06,49,9.70
2007,05,29,06,50,9.70
2007,05,29,06,51,9.80
2007,05,29,06,52,9.80
2007,05,29,06,53,9.90
2007,05,29,06,54,9.90
2007,05,29,06,55,10.00
2007,05,29,06,56,10.00
2007,05,29,06,57,10.10
2007,05,29,06,58,10.10
2007,05,29,06,59,10.20
2007,05,29,07,00,10.20
2007,05,29,07,01,10.30
2007,05,29,07,02,10.40
2007,05,29,07,03,10.40
2007,05,29,07,04,10.50
2007,05,29,07,05,10.50
2007,05,29,07,06,10.60
2007,05,29,07,07,10.60
2007,05,29,07,08,10.70
2007,05,29,07,09,10.70
2007,05,29,07,10,10.80
2007,05,29,07,11,10.80
2007,05,29,07,12,10.80
2007,05,29,07,13,10.80
2007,05,29,07,14,10.90
2007,05,29,07,15,11.00
2007,05,29,07,16,11.00
2007,05,29,07,17,11.10
2007,05,29,07,18,11.20
2007,05,29,07,19,11.30
2007,05,29,07,20,11.40
2007,05,29,07,21,11.50
2007,05,29,07,22,11.60
2007,05,29,07,23,11.60
2007,05,29,07,24,11.70
2007,05,29,07,25,11.80
2007,05,29,07,26,11.80
2007,05,29,07,27,11.90
2007,05,29,07,28,11.90
2007,05,29,07,29,12.00
2007,05,29,07,30,12.00
2007,05,29,07,31,12.10
2007,05,29,07,32,12.10
2007,05,29,07,33,12.20
2007,05,29,07,34,12.20
2007,05,29,07,35,12.20
2007,05,29,07,36,12.30
2007,05,29,07,37,12.30
2007,05,29,07,38,12.40
2007,05,29,07,39,12.40
2007,05,29,07,40,12.50
2007,05,29,07,41,12.50
2007,05,29,07,42,12.60
2007,05,29,07,43,12.70
2007,05,29,07,44,12.80
2007,05,29,07,45,12.80
2007,05,29,07,46,12.90
2007,05,29,07,47,13.00
2007,05,29,07,48,13.10
2007,05,29,07,49,13.10
2007,05,29,07,50,13.20
2007,05,29,07,51,13.30
2007,05,29,07,52,13.40
2007,05,29,07,53,13.50
2007,05,29,07,54,13.60
2007,05,29,07,55,13.60
2007,05,29,07,56,13.70
2007,05,29,07,57,13.80
2007,05,29,07,58,13.80
2007,05,29,07,59,13.90
2007,05,29,08,00,13.90
2007,05,29,08,01,14.00
2007,05,29,08,02,14.10
2007,05,29,08,03,14.20
2007,05,29,08,04,14.20
2007,05,29,08,05,14.20
2007,05,29,08,06,14.30
2007,05,29,08,07,14.30
2007,05,29,08,08,14.40
2007,05,29,08,09,14.50
2007,05,29,08,10,14.40
2007,05,29,08,11,14.40
2007,05,29,08,12,14.40
2007,05,29,08,13,14.40
2007,05,29,08,14,14.40
2007,05,29,08,15,14.40
2007,05,29,08,16,14.40
2007,05,29,08,17,14.40
2007,05,29,08,18,14.40
2007,05,29,08,19,14.50
2007,05,29,08,20,14.60
2007,05,29,08,21,14.60
2007,05,29,08,22,14.70
2007,05,29,08,23,14.70
2007,05,29,08,24,14.80
2007,05,29,08,25,14.80
2007,05,29,08,26,14.90
2007,05,29,08,27,14.90
2007,05,29,08,28,14.90
2007,05,29,08,29,15.00
2007,05,29,08,30,15.00
2007,05,29,08,31,15.00
2007,05,29,08,32,15.00
2007,05,29,08,33,15.00
2007,05,29,08,34,15.00
2007,05,29,08,35,15.00
2007,05,29,08,36,15.10
2007,05,29,08,37,15.10
2007,05,29,08,38,15.20
2007,05,29,08,39,15.10
2007,05,29,08,40,15.00
2007,05,29,08,41,15.00
2007,05,29,08,42,15.00
2007,05,29,08,43,15.00
2007,05,29,08,44,15.00
2007,05,29,08,45,15.00
2007,05,29,08,46,15.00
2007,05,29,08,47,15.00
2007,05,29,08,48,15.00
2007,05,29,08,49,15.00
2007,05,29,08,50,15.00
2007,05,29,08,51,15.00
2007,05,29,08,52,15.00
2007,05,29,08,53,15.00
2007,05,29,08,54,15.00
2007,05,29,08,55,15.00
2007,05,29,08,56,15.00
2007,05,29,08,57,15.00
2007,05,29,08,58,15.00
2007,05,29,08,59,15.00
2007,05,29,09,00,15.10
2007,05,29,09,01,15.10
2007,05,29,09,02,15.10
2007,05,29,09,03,15.10
2007,05,29,09,04,15.00
2007,05,29,09,05,15.00
2007,05,29,09,06,15.00
2007,05,29,09,07,15.00
2007,05,29,09,08,15.00
2007,05,29,09,09,15.00
2007,05,29,09,10,15.00
2007,05,29,09,11,15.00
2007,05,29,09,12,15.00
2007,05,29,09,13,15.00
2007,05,29,09,14,15.00
2007,05,29,09,15,15.00
2007,05,29,09,16,15.00
2007,05,29,09,17,15.00
2007,05,29,09,18,15.00
2007,05,29,09,19,15.10
2007,05,29,09,20,15.10
2007,05,29,09,21,15.20
2007,05,29,09,22,15.20
2007,05,29,09,23,15.30
2007,05,29,09,24,15.40
2007,05,29,09,25,15.40
2007,05,29,09,26,15.40
2007,05,29,09,27,15.40
2007,05,29,09,28,15.50
2007,05,29,09,29,15.60
2007,05,29,09,30,15.70
2007,05,29,09,31,15.70
2007,05,29,09,32,15.80
2007,05,29,09,33,15.80
2007,05,29,09,34,15.80
2007,05,29,09,35,15.90
2007,05,29,09,36,15.90
2007,05,29,09,37,16.00
2007,05,29,09,38,16.00
2007,05,29,09,39,16.10
2007,05,29,09,40,16.10
2007,05,29,09,41,16.10
2007,05,29,09,42,16.20
2007,05,29,09,43,16.20
2007,05,29,09,44,16.20
2007,05,29,09,45,16.20
2007,05,29,09,46,16.20
2007,05,29,09,47,16.20
2007,05,29,09,48,16.20
2007,05,29,09,49,16.20
2007,05,29,09,50,16.20
2007,05,29,09,51,16.20
2007,05,29,09,52,16.20
2007,05,29,09,53,16.20
2007,05,29,09,54,16.10
2007,05,29,09,55,16.20
2007,05,29,09,56,16.30
2007,05,29,09,57,16.30
2007,05,29,09,58,16.30
2007,05,29,09,59,16.40
2007,05,29,10,00,16.40
2007,05,29,10,01,16.40
2007,05,29,10,02,16.50
2007,05,29,10,03,16.60
2007,05,29,10,04,16.70
2007,05,29,10,05,16.80
2007,05,29,10,06,16.80
2007,05,29,10,07,16.80
2007,05,29,10,08,16.80
2007,05,29,10,09,16.80
2007,05,29,10,10,16.70
2007,05,29,10,11,16.70
2007,05,29,10,12,16.80
2007,05,29,10,13,16.90
2007,05,29,10,14,17.00
2007,05,29,10,15,17.10
2007,05,29,10,16,17.10
2007,05,29,10,17,17.10
2007,05,29,10,18,17.10
2007,05,29,10,19,17.10
2007,05,29,10,20,17.00
2007,05,29,10,21,17.00
2007,05,29,10,22,17.00
2007,05,29,10,23,17.00
2007,05,29,10,24,17.00
2007,05,29,10,25,17.10
2007,05,29,10,26,17.10
2007,05,29,10,27,17.10
2007,05,29,10,28,17.10
2007,05,29,10,29,17.20
2007,05,29,10,30,17.20
2007,05,29,10,31,17.20
2007,05,29,10,32,17.20
2007,05,29,10,33,17.20
2007,05,29,10,34,17.10
2007,05,29,10,35,16.90
2007,05,29,10,36,16.80
2007,05,29,10,37,16.80
2007,05,29,10,38,16.80
2007,05,29,10,39,16.80
2007,05,29,10,40,16.80
2007,05,29,10,41,16.90
2007,05,29,10,42,17.00
2007,05,29,10,43,17.10
2007,05,29,10,44,17.10
2007,05,29,10,45,17.00
2007,05,29,10,46,16.90
2007,05,29,10,47,16.90
2007,05,29,10,48,16.90
2007,05,29,10,49,16.80
2007,05,29,10,50,16.80
2007,05,29,10,51,16.80
2007,05,29,10,52,16.80
2007,05,29,10,53,16.80
2007,05,29,10,54,16.80
2007,05,29,10,55,16.80
2007,05,29,10,56,16.90
2007,05,29,10,57,17.00
2007,05,29,10,58,17.10
2007,05,29,10,59,17.20
2007,05,29,11,00,17.20
2007,05,29,11,01,17.30
2007,05,29,11,02,17.40
2007,05,29,11,03,17.50
2007,05,29,11,04,17.60
2007,05,29,11,05,17.80
2007,05,29,11,06,17.90
2007,05,29,11,07,18.10
2007,05,29,11,08,18.20
2007,05,29,11,09,18.30
2007,05,29,11,10,18.30
2007,05,29,11,11,18.30
2007,05,29,11,12,18.40
2007,05,29,11,13,18.50
2007,05,29,11,14,18.50
2007,05,29,11,15,18.50
2007,05,29,11,16,18.50
2007,05,29,11,17,18.60
2007,05,29,11,18,18.70
2007,05,29,11,19,18.80
2007,05,29,11,20,18.80
2007,05,29,11,21,18.70
2007,05,29,11,22,18.70
2007,05,29,11,23,18.80
2007,05,29,11,24,18.90
2007,05,29,11,25,18.90
2007,05,29,11,26,19.10
2007,05,29,11,27,19.10
2007,05,29,11,28,19.00
2007,05,29,11,29,18.90
2007,05,29,11,30,18.80
2007,05,29,11,31,18.70
2007,05,29,11,32,18.60
2007,05,29,11,33,18.40
2007,05,29,11,34,18.20
2007,05,29,11,35,18.10
2007,05,29,11,36,17.90
2007,05,29,11,37,17.80
2007,05,29,11,38,17.90
2007,05,29,11,39,17.90
2007,05,29,11,40,18.00
2007,05,29,11,41,18.20
2007,05,29,11,42,18.30
2007,05,29,11,43,18.40
2007,05,29,11,44,18.50
2007,05,29,11,45,18.60
2007,05,29,11,46,18.60
2007,05,29,11,47,18.70
2007,05,29,11,48,18.80
2007,05,29,11,49,18.90
2007,05,29,11,50,19.00
2007,05,29,11,51,19.10
2007,05,29,11,52,19.10
2007,05,29,11,53,19.20
2007,05,29,11,54,19.30
2007,05,29,11,55,19.40
2007,05,29,11,56,19.60
2007,05,29,11,57,19.70
2007,05,29,11,58,19.80
2007,05,29,11,59,19.90
2007,05,29,12,00,19.90
2007,05,29,12,01,20.00
2007,05,29,12,02,20.00
2007,05,29,12,03,20.00
2007,05,29,12,04,20.10
2007,05,29,12,05,20.30
2007,05,29,12,06,20.40
2007,05,29,12,07,20.50
2007,05,29,12,08,20.40
2007,05,29,12,09,20.30
2007,05,29,12,10,20.30
2007,05,29,12,11,20.30
2007,05,29,12,12,20.20
2007,05,29,12,13,20.00
2007,05,29,12,14,20.00
2007,05,29,12,15,19.90
2007,05,29,12,16,19.70
2007,05,29,12,17,19.70
2007,05,29,12,18,19.60
2007,05,29,12,19,19.60
2007,05,29,12,20,19.60
2007,05,29,12,21,19.60
2007,05,29,12,22,19.80
2007,05,29,12,23,19.70
2007,05,29,12,24,19.70
2007,05,29,12,25,19.70
2007,05,29,12,26,19.70
2007,05,29,12,27,19.80
2007,05,29,12,28,19.80
2007,05,29,12,29,19.80
2007,05,29,12,30,19.90
2007,05,29,12,31,19.90
2007,05,29,12,32,19.80
2007,05,29,12,33,19.80
2007,05,29,12,34,19.80
2007,05,29,12,35,19.90
2007,05,29,12,36,19.90
2007,05,29,12,37,20.00
2007,05,29,12,38,20.00
2007,05,29,12,39,20.00
2007,05,29,12,40,20.10
2007,05,29,12,41,20.10
2007,05,29,12,42,20.20
2007,05,29,12,43,20.10
2007,05,29,12,44,20.10
2007,05,29,12,45,20.10
2007,05,29,12,46,20.10
2007,05,29,12,47,20.20
2007,05,29,12,48,20.20
2007,05,29,12,49,20.20
2007,05,29,12,50,20.30
2007,05,29,12,51,20.40
2007,05,29,12,52,20.40
2007,05,29,12,53,20.50
2007,05,29,12,54,20.60
2007,05,29,12,55,20.60
2007,05,29,12,56,20.70
2007,05,29,12,57,20.80
2007,05,29,12,58,20.80
2007,05,29,12,59,20.80
2007,05,29,13,00,20.80
2007,05,29,13,01,20.80
2007,05,29,13,02,20.80
2007,05,29,13,03,20.70
2007,05,29,13,04,20.60
2007,05,29,13,05,20.50
2007,05,29,13,06,20.50
2007,05,29,13,07,20.50
2007,05,29,13,08,20.40
2007,05,29,13,09,20.40
2007,05,29,13,10,20.30
2007,05,29,13,11,20.30
2007,05,29,13,12,20.30
2007,05,29,13,13,20.30
2007,05,29,13,14,20.40
2007,05,29,13,15,20.50
2007,05,29,13,16,20.60
2007,05,29,13,17,20.70
2007,05,29,13,18,20.80
2007,05,29,13,19,20.80
2007,05,29,13,20,20.80
2007,05,29,13,21,20.80
2007,05,29,13,22,20.80
2007,05,29,13,23,20.90
2007,05,29,13,24,21.00
2007,05,29,13,25,21.10
2007,05,29,13,26,21.10
2007,05,29,13,27,21.10
2007,05,29,13,28,21.00
2007,05,29,13,29,21.10
2007,05,29,13,30,21.20
2007,05,29,13,31,21.40
2007,05,29,13,32,21.40
2007,05,29,13,33,21.40
2007,05,29,13,34,21.20
2007,05,29,13,35,21.30
2007,05,29,13,36,21.20
2007,05,29,13,37,21.00
2007,05,29,13,38,21.00
2007,05,29,13,39,21.10
2007,05,29,13,40,21.10
2007,05,29,13,41,21.00
2007,05,29,13,42,20.90
2007,05,29,13,43,20.90
2007,05,29,13,44,20.90
2007,05,29,13,45,20.80
2007,05,29,13,46,20.80
2007,05,29,13,47,20.80
2007,05,29,13,48,20.70
2007,05,29,13,49,20.50
2007,05,29,13,50,20.30
2007,05,29,13,51,20.10
2007,05,29,13,52,20.00
2007,05,29,13,53,19.80
2007,05,29,13,54,19.80
2007,05,29,13,55,19.80
2007,05,29,13,56,19.90
2007,05,29,13,57,20.00
2007,05,29,13,58,20.10
2007,05,29,13,59,20.20
2007,05,29,14,00,20.20
2007,05,29,14,01,20.30
2007,05,29,14,02,20.30
2007,05,29,14,03,20.40
2007,05,29,14,04,20.40
2007,05,29,14,05,20.50
2007,05,29,14,06,20.60
2007,05,29,14,07,20.70
2007,05,29,14,08,20.70
2007,05,29,14,09,20.90
2007,05,29,14,10,21.00
2007,05,29,14,11,21.20
2007,05,29,14,12,21.40
2007,05,29,14,13,21.70
2007,05,29,14,14,21.80
2007,05,29,14,15,21.90
2007,05,29,14,16,22.00
2007,05,29,14,17,22.10
2007,05,29,14,18,22.20
2007,05,29,14,19,22.30
2007,05,29,14,20,22.30
2007,05,29,14,21,22.30
2007,05,29,14,22,22.30
2007,05,29,14,23,22.30
2007,05,29,14,24,22.20
2007,05,29,14,25,22.20
2007,05,29,14,26,22.20
2007,05,29,14,27,22.10
2007,05,29,14,28,22.00
2007,05,29,14,29,21.90
2007,05,29,14,30,21.80
2007,05,29,14,31,21.70
2007,05,29,14,32,21.70
2007,05,29,14,33,21.70
2007,05,29,14,34,21.70
2007,05,29,14,35,21.60
2007,05,29,14,36,21.70
2007,05,29,14,37,21.70
2007,05,29,14,38,21.70
2007,05,29,14,39,21.70
2007,05,29,14,40,21.70
2007,05,29,14,41,21.80
2007,05,29,14,42,21.80
2007,05,29,14,43,21.80
2007,05,29,14,44,21.70
2007,05,29,14,45,21.70
2007,05,29,14,46,21.60
2007,05,29,14,47,21.50
2007,05,29,14,48,21.50
2007,05,29,14,49,21.60
2007,05,29,14,50,21.60
2007,05,29,14,51,21.60
2007,05,29,14,52,21.60
2007,05,29,14,53,21.60
2007,05,29,14,54,21.60
2007,05,29,14,55,21.70
2007,05,29,14,56,21.80
2007,05,29,14,57,21.80
2007,05,29,14,58,21.80
2007,05,29,14,59,21.80
2007,05,29,15,00,21.80
2007,05,29,15,01,21.80
2007,05,29,15,02,21.60
2007,05,29,15,03,21.40
2007,05,29,15,04,21.30
2007,05,29,15,05,21.20
2007,05,29,15,06,21.30
2007,05,29,15,07,21.30
2007,05,29,15,08,21.40
2007,05,29,15,09,21.50
2007,05,29,15,10,21.60
2007,05,29,15,11,21.60
2007,05,29,15,12,21.60
2007,05,29,15,13,21.50
2007,05,29,15,14,21.50
2007,05,29,15,15,21.40
2007,05,29,15,16,21.30
2007,05,29,15,17,21.30
2007,05,29,15,18,21.30
2007,05,29,15,19,21.50
2007,05,29,15,20,21.60
2007,05,29,15,21,21.70
2007,05,29,15,22,21.60
2007,05,29,15,23,21.60
2007,05,29,15,24,21.40
2007,05,29,15,25,21.20
2007,05,29,15,26,21.20
2007,05,29,15,27,21.30
2007,05,29,15,28,21.40
2007,05,29,15,29,21.50
2007,05,29,15,30,21.70
2007,05,29,15,31,21.90
2007,05,29,15,32,22.00
2007,05,29,15,33,22.00
2007,05,29,15,34,22.00
2007,05,29,15,35,22.00
2007,05,29,15,36,21.90
2007,05,29,15,37,21.80
2007,05,29,15,38,21.80
2007,05,29,15,39,21.70
2007,05,29,15,40,21.70
2007,05,29,15,41,21.60
2007,05,29,15,42,21.50
2007,05,29,15,43,21.50
2007,05,29,15,44,21.60
2007,05,29,15,45,21.60
2007,05,29,15,46,21.60
2007,05,29,15,47,21.80
2007,05,29,15,48,21.80
2007,05,29,15,49,22.00
2007,05,29,15,50,22.10
2007,05,29,15,51,22.30
2007,05,29,15,52,22.40
2007,05,29,15,53,22.40
2007,05,29,15,54,22.50
2007,05,29,15,55,22.60
2007,05,29,15,56,22.70
2007,05,29,15,57,22.70
2007,05,29,15,58,22.60
2007,05,29,15,59,22.40
2007,05,29,16,00,22.40
2007,05,29,16,01,22.40
2007,05,29,16,02,22.40
2007,05,29,16,03,22.40
2007,05,29,16,04,22.40
2007,05,29,16,05,22.50
2007,05,29,16,06,22.60
2007,05,29,16,07,22.60
2007,05,29,16,08,22.70
2007,05,29,16,09,22.80
2007,05,29,16,10,22.90
2007,05,29,16,11,22.90
2007,05,29,16,12,22.90
2007,05,29,16,13,22.80
2007,05,29,16,14,22.90
2007,05,29,16,15,22.90
2007,05,29,16,16,23.00
2007,05,29,16,17,23.10
2007,05,29,16,18,23.20
2007,05,29,16,19,23.30
2007,05,29,16,20,23.20
2007,05,29,16,21,23.10
2007,05,29,16,22,23.00
2007,05,29,16,23,22.90
2007,05,29,16,24,22.90
2007,05,29,16,25,23.00
2007,05,29,16,26,23.00
2007,05,29,16,27,23.10
2007,05,29,16,28,23.40
2007,05,29,16,29,23.60
2007,05,29,16,30,23.70
2007,05,29,16,31,23.80
2007,05,29,16,32,23.80
2007,05,29,16,33,23.80
2007,05,29,16,34,23.80
2007,05,29,16,35,23.80
2007,05,29,16,36,23.80
2007,05,29,16,37,23.80
2007,05,29,16,38,23.80
2007,05,29,16,39,23.70
2007,05,29,16,40,23.60
2007,05,29,16,41,23.50
2007,05,29,16,42,23.40
2007,05,29,16,43,23.30
2007,05,29,16,44,23.30
2007,05,29,16,45,23.40
2007,05,29,16,46,23.50
2007,05,29,16,47,23.60
2007,05,29,16,48,23.70
2007,05,29,16,49,23.80
2007,05,29,16,50,23.80
2007,05,29,16,51,23.80
2007,05,29,16,52,23.90
2007,05,29,16,53,23.90
2007,05,29,16,54,23.90
2007,05,29,16,55,23.90
2007,05,29,16,56,23.90
2007,05,29,16,57,23.90
2007,05,29,16,58,24.00
2007,05,29,16,59,24.10
2007,05,29,17,00,24.10
2007,05,29,17,01,24.20
2007,05,29,17,02,24.30
2007,05,29,17,03,24.20
2007,05,29,17,04,24.00
2007,05,29,17,05,23.90
2007,05,29,17,06,23.80
2007,05,29,17,07,23.70
2007,05,29,17,08,23.60
2007,05,29,17,09,23.50
2007,05,29,17,10,23.40
2007,05,29,17,11,23.30
2007,05,29,17,12,23.20
2007,05,29,17,13,23.10
2007,05,29,17,14,23.00
2007,05,29,17,15,23.00
2007,05,29,17,16,23.00
2007,05,29,17,17,23.00
2007,05,29,17,18,23.10
2007,05,29,17,19,23.20
2007,05,29,17,20,23.20
2007,05,29,17,21,23.30
2007,05,29,17,22,23.40
2007,05,29,17,23,23.50
2007,05,29,17,24,23.60
2007,05,29,17,25,23.70
2007,05,29,17,26,23.80
2007,05,29,17,27,23.80
2007,05,29,17,28,23.90
2007,05,29,17,29,23.80
2007,05,29,17,30,23.90
2007,05,29,17,31,23.90
2007,05,29,17,32,23.80
2007,05,29,17,33,23.70
2007,05,29,17,34,23.60
2007,05,29,17,35,23.60
2007,05,29,17,36,23.60
2007,05,29,17,37,23.50